Regional Weather Roundup
Issued by NWS

Home | Current Version | Previous Version | Graphics & Text | Print | Product List | Glossary On
Versions: 1 2 3 4 5 6 7 8 9 10 11 12 13 14 15 16 17 18 19 20 21 22 23 24 25 26 27 28 29 30 31 32 33 34 35 36 37 38 39 40 41 42 43 44 45 46 47 48 49 50
970
ASUS43 KLOT 251303
RWRIL

ILLINOIS REGIONAL WEATHER ROUNDUP
NATIONAL WEATHER SERVICE CHICAGO/ROMEOVILLE IL
800 AM CDT THU MAY 25 2017

NOTE: "FAIR" INDICATES FEW OR NO CLOUDS BELOW 12,000 FEET WITH NO
SIGNIFICANT WEATHER AND/OR OBSTRUCTIONS TO VISIBILITY.

* THESE STATIONS ARE NOT UNDER NWS QUALITY CONTROL. THEY ALSO MAY NOT
  REPORT WEATHER SUCH AS PRECIPITATION OR FOG.

ILZ001-002-007-009-015-016-024-251400-
NORTHWEST ILLINOIS

CITY           SKY/WX    TMP DP  RH WIND       PRES   REMARKS
MOLINE         CLOUDY    55  50  83 N3        29.68R
STERLING*      CLOUDY    55  52  89 N10       29.66S
$$

ILZ003-004-008-010-011-017-018-251400-
NORTH CENTRAL ILLINOIS

CITY           SKY/WX    TMP DP  RH WIND       PRES   REMARKS
ROCKFORD       CLOUDY    56  51  84 N15       29.65F
FREEPORT*      CLOUDY    53  50  90 N7        29.69R
ROCHELLE*      CLOUDY    54  51  92 N13       29.64F FOG
DE KALB*       CLOUDY    54  51  89 N14G21    29.64S
$$

ILZ005-006-012>014-019>023-251400-
NORTHEAST ILLINOIS

CITY           SKY/WX    TMP DP  RH WIND       PRES   REMARKS
CHICAGO-OHARE  CLOUDY    56  51  84 NW13      29.59R
CHICAGO-MIDWAY CLOUDY    56  51  84 NW12      29.59R
AURORA         CLOUDY    57  53  86 N14       29.62R
LANSING*       RAIN      53  53  99 N10       29.58R
WAUKEGAN       CLOUDY    54  51  90 N9G16     29.60S
DUPAGE AIRPORT CLOUDY    55  53  93 N13       29.60S
WHEELING       CLOUDY    55  52  89 N14       29.62R
NORTHERLY ISL    N/A     53  49  86 N16         N/A
$$

LMZ740>746-251400-
SOUTHERN LAKE MICHIGAN

STATION/POSITION SKY/WX   TEMP    WIND        PRES    VSBY  WAVE
                          AIR SEA DIR/SP/G                  HT/PER
                          (F)     (DEG/KT/KT) (MB)    (MI)  (FT/S)
SOUTHERN BUOY              46 45  360/ 14/ 17 1001.2          3/ 5
WILMETTE HARBOR            49 51                N/A           4/ 5
HARRISON CRIB              50     340/ 22/ 25   N/A
BURNHAM HARBOR             53     340/ 14/ 20   N/A
CALUMET HARBOR             51     330/ 12/ 15 1001.4R
BURNS HARBOR               50     340/ 17/ 22 1001.4R
MICHIGAN CITY              49     330/ 21/ 24   N/A
MICHIGAN CITY 6N           49 52  340/ 16/ 19   N/A           5/ 5
ST. JOSEPH                 53 56   20/ 16/ 21 1000.5R         5/ 5
$$

ILZ025>027-034>036-040-047-049-050-058-095>099-251400-
WEST-CENTRAL ILLINOIS

CITY           SKY/WX    TMP DP  RH WIND       PRES   REMARKS
QUINCY         SUNNY     54  52  93 NW9       29.71R
MACOMB*        SUNNY     55  53  94 NW8       29.71R
$$

ILZ028>032-037-038-041>044-048-051>054-059>061-251400-
CENTRAL ILLINOIS

CITY           SKY/WX    TMP DP  RH WIND       PRES   REMARKS
BLOOMINGTON    CLOUDY    54  52  93 N15       29.65R
DECATUR        CLOUDY    56  52  86 NW14      29.64R
PEORIA         CLOUDY    55  52  89 N7        29.66R
LACON*         CLOUDY    54  52  92 NW8       29.65S
LINCOLN*       CLOUDY    56  53  89 N5        29.66R
SPRINGFIELD    PTSUNNY   57  53  86 N10       29.66S
TAYLORVILLE    NOT AVBL
$$

ILZ033-039-045-046-055>057-062-063-251400-
EAST-CENTRAL ILLINOIS

CITY           SKY/WX    TMP DP  RH WIND       PRES   REMARKS
CHAMPAIGN      CLOUDY    55  52  89 NW20      29.60R FOG
MATTOON        CLOUDY    56  54  93 NW22      29.61R
$$

ILZ079-100>102-251400-
SOUTHWEST ILLINOIS

CITY           SKY/WX    TMP DP  RH WIND       PRES   REMARKS
ALTON          MOSUNNY   55  52  88 NW12      29.69R
BELLEVILLE     SUNNY     59  53  80 NW9       29.69R
CAHOKIA*       SUNNY     60  52  74 NW10      29.69R
SPARTA*        SUNNY     57  53  86 W6        29.70R
$$

ILZ064>066-069>071-074>076-080>082-084>086-088>090-092>094-251400-
SOUTH-CENTRAL ILLINOIS

CITY           SKY/WX    TMP DP  RH WIND       PRES   REMARKS
CARBONDALE     SUNNY     58  54  86 NW10G18   29.69R
CAIRO*         SUNNY     58  52  81 W7        29.71R
EFFINGHAM*     CLOUDY    57  55  92 W14       29.65R
MARION         MOSUNNY   59  57  94 W14       29.69R
MT. VERNON       N/A     58  54  86 W3        29.67R
CENTRALIA*     CLOUDY    58  55  88 NW14G20   29.67R
SALEM*         CLOUDY    58  53  83 NW10G20   29.66R
$$

ILZ067-068-072-073-078-083-087-091-251400-
SOUTHEAST ILLINOIS

CITY           SKY/WX    TMP DP  RH WIND       PRES   REMARKS
LAWRENCEVILLE  CLOUDY    59  55  87 NW18G26   29.58R
HARRISBURG*    CLOUDY    58  55  90 W8        29.67R
ROBINSON*      CLOUDY    57  54  90 NW14      29.59R
CARMI*         CLOUDY    58  55  91 W15       29.63R
$$

ABBREVIATIONS USED IN REMARKS
   TC - TEMPERATURE IN CELSIUS
  WCI - WIND CHILL INDEX
   HX - HEAT INDEX
  VSB - VISIBILITY
$$





USA.gov is the U.S. government's official web portal to all federal, state and local government web resources and services.